Simultaneous Nadir Overpasses (SNOs) Predictions

Prediction of SNOs between NPP and TERRA Satellite Orbit:

Table of predicted SNOs for the next 14.0 days since TLE Epoch: 5/20/2013
Index Date (NPP) Time (NPP) Lat,Lon (NPP) SZA (NPP ) Date (TERRA) Time (TERRA) Lat,Lon (TERRA) SZA (TERRA ) Distance(km) Time Diff (sec)
1 05/21/2013 02:55:49 -68.31, -45.56 132.00 05/21/2013 02:56:53 -68.32, -45.54 132.00 1.01 64
2 05/21/2013 03:46:33 68.16, 121.94 47.85 05/21/2013 03:46:21 68.16, 121.92 47.84 1.03 12
3 05/21/2013 04:37:08 -67.73, -70.20 132.60 05/21/2013 04:35:56 -67.77, -70.90 132.56 30.20 72
4 05/23/2013 19:12:43 -68.28, 70.26 132.55 05/23/2013 19:13:25 -68.28, 70.28 132.56 0.95 42
5 05/23/2013 20:03:27 68.14,-122.25 47.30 05/23/2013 20:02:53 68.11,-122.27 47.27 2.56 34
6 05/26/2013 10:39:09 69.02, 17.73 47.73 05/26/2013 10:40:18 68.89, 19.27 47.59 63.19 69
7 05/26/2013 11:29:38 -68.25,-173.93 133.06 05/26/2013 11:29:58 -68.23,-173.91 133.08 2.54 20
8 05/26/2013 12:20:22 68.11, -6.45 46.80 05/26/2013 12:19:25 68.12, -6.40 46.80 2.29 57
9 05/29/2013 02:55:52 68.36, 134.39 46.62 05/29/2013 02:57:00 68.34, 134.45 46.60 3.32 68
10 05/29/2013 03:46:32 -68.18, -58.06 133.57 05/29/2013 03:46:31 -68.19, -58.10 133.56 1.89 1
11 05/29/2013 04:37:13 67.88, 109.62 46.13 05/29/2013 04:36:00 67.96, 109.28 46.21 16.88 73
12 05/31/2013 19:12:46 68.29,-109.75 46.17 05/31/2013 19:13:33 68.29,-109.74 46.16 0.56 47
13 05/31/2013 20:03:27 -68.16, 57.74
